Volver al catálogo

COSMOS 839 DEB

ActivoLEO
NORAD 17018·DEBRIS·🇷🇺 Russia

Lanzado Jul 8, 1976 desde Plesetsk Cosmodrome

Loading…

Próximos Pases (próximas 24 horas)

TLE

ActualizadoSource: Space-Track

Época: Sep 14, 2026, 02:06 UTC

1 17018U 76067BJ  26257.08761126  .00000232  00000-0  98594-3 0  9991
2 17018  66.0193 266.3804 0615600  43.3727  55.6944 12.47501464894959

Sigue COSMOS 839 DEB en tiempo real con AllMySat

Download on the App Store